When you browse on this site, cookies collect data to enhance your experience and personalize the content and advertising you see.
Visit our Privacy Policy to learn more. By continuing to use the site, you agree to this use of cookies and data.
  • în România
  • Lista ţărilor
  • Pe 7 zile
  • Temperatura apei
  • Meteo pe hartă
  • Widget-uri
  • user-avatar
    Intrare

    Meteo pe oră la Galata

    Astăzi, 27 Ianuarie, Luni

    Timp Temperatura Precipitaţii Vânt Presiune Umiditate
    00:00 +6°C° 0 mm 1 m/s 760 mmHg 74%
    01:00 +6°C° 0 mm 1 m/s 760 mmHg 74%
    02:00 +6°C° 0 mm 1 m/s 759 mmHg 76%
    03:00 +6°C° 0 mm 1 m/s 759 mmHg 78%
    04:00 +6°C° 0 mm 1 m/s 758 mmHg 79%
    05:00 +6°C° 0 mm 2 m/s 758 mmHg 81%
    06:00 +6°C° 0.1 mm 2 m/s 758 mmHg 83%
    07:00 +6°C° 0.1 mm 2 m/s 757 mmHg 86%
    08:00 +7°C° 0 mm 2 m/s 758 mmHg 84%
    09:00 +8°C° 0 mm 2 m/s 757 mmHg 83%
    10:00 +9°C° 0 mm 3 m/s 757 mmHg 82%
    11:00 +11°C° 0 mm 3 m/s 757 mmHg 81%
    12:00 +11°C° 0 mm 4 m/s 756 mmHg 78%
    13:00 +12°C° 0 mm 4 m/s 756 mmHg 76%
    14:00 +13°C° 0 mm 4 m/s 755 mmHg 73%
    15:00 +12°C° 0.2 mm 4 m/s 755 mmHg 79%
    16:00 +11°C° 0.2 mm 3 m/s 755 mmHg 84%
    17:00 +10°C° 0.2 mm 3 m/s 754 mmHg 90%
    18:00 +10°C° 0.8 mm 3 m/s 754 mmHg 92%
    19:00 +10°C° 0.8 mm 2 m/s 754 mmHg 94%
    20:00 +9°C° 0.8 mm 2 m/s 754 mmHg 96%
    21:00 +9°C° 1.3 mm 3 m/s 754 mmHg 94%
    22:00 +9°C° 1.3 mm 3 m/s 754 mmHg 91%
    23:00 +8°C° 1.3 mm 4 m/s 754 mmHg 89%

    Mâine, 28 Ianuarie, Marţi

    Timp Temperatura Precipitaţii Vânt Presiune Umiditate
    00:00 +7°C° 1.2 mm 4 m/s 753 mmHg 88%
    01:00 +6°C° 1.2 mm 5 m/s 753 mmHg 87%
    02:00 +5°C° 1.2 mm 6 m/s 753 mmHg 86%
    03:00 +5°C° 1.3 mm 6 m/s 753 mmHg 86%
    04:00 +4°C° 1.3 mm 6 m/s 753 mmHg 85%
    05:00 +4°C° 1.3 mm 6 m/s 752 mmHg 84%
    06:00 +4°C° 0.2 mm 6 m/s 753 mmHg 85%
    07:00 +4°C° 0.2 mm 6 m/s 753 mmHg 85%
    08:00 +3°C° 0.2 mm 6 m/s 753 mmHg 86%
    09:00 +4°C° 0 mm 6 m/s 753 mmHg 83%
    10:00 +5°C° 0 mm 6 m/s 753 mmHg 80%
    11:00 +7°C° 0 mm 5 m/s 753 mmHg 76%
    12:00 +8°C° 0 mm 5 m/s 753 mmHg 74%
    13:00 +8°C° 0 mm 6 m/s 752 mmHg 72%
    14:00 +9°C° 0 mm 6 m/s 752 mmHg 69%
    15:00 +9°C° 0 mm 5 m/s 752 mmHg 71%
    16:00 +8°C° 0 mm 4 m/s 752 mmHg 72%
    17:00 +9°C° 0 mm 3 m/s 752 mmHg 74%
    18:00 +8°C° 0 mm 3 m/s 752 mmHg 75%
    19:00 +8°C° 0 mm 3 m/s 752 mmHg 76%
    20:00 +7°C° 0 mm 3 m/s 752 mmHg 77%
    21:00 +7°C° 0 mm 3 m/s 752 mmHg 78%
    22:00 +7°C° 0 mm 3 m/s 752 mmHg 78%
    23:00 +5°C° 0 mm 3 m/s 751 mmHg 78%

    Poimâine, 29 Ianuarie, Miercuri

    Timp Temperatura Precipitaţii Vânt Presiune Umiditate
    00:00 +5°C° 0 mm 3 m/s 751 mmHg 80%
    01:00 +5°C° 0 mm 3 m/s 751 mmHg 82%
    02:00 +5°C° 0 mm 4 m/s 750 mmHg 83%
    03:00 +5°C° 0 mm 4 m/s 750 mmHg 84%
    04:00 +5°C° 0 mm 4 m/s 749 mmHg 85%
    05:00 +5°C° 0 mm 4 m/s 749 mmHg 86%
    06:00 +5°C° 0 mm 4 m/s 749 mmHg 86%
    07:00 +5°C° 0 mm 4 m/s 749 mmHg 85%
    08:00 +5°C° 0 mm 4 m/s 748 mmHg 85%
    09:00 +6°C° 0 mm 4 m/s 749 mmHg 80%
    10:00 +7°C° 0 mm 4 m/s 749 mmHg 75%
    11:00 +9°C° 0 mm 5 m/s 749 mmHg 70%
    12:00 +8°C° 0.1 mm 6 m/s 749 mmHg 69%
    13:00 +8°C° 0.1 mm 7 m/s 749 mmHg 69%
    14:00 +6°C° 0.1 mm 8 m/s 749 mmHg 69%
    15:00 +6°C° 0 mm 7 m/s 750 mmHg 65%
    16:00 +5°C° 0 mm 6 m/s 750 mmHg 62%
    17:00 +5°C° 0 mm 6 m/s 751 mmHg 58%
    18:00 +6°C° 0 mm 5 m/s 751 mmHg 60%
    19:00 +5°C° 0 mm 5 m/s 752 mmHg 61%
    20:00 +4°C° 0 mm 4 m/s 752 mmHg 63%
    21:00 +4°C° 0 mm 4 m/s 752 mmHg 63%
    22:00 +4°C° 0 mm 4 m/s 753 mmHg 63%
    23:00 +3°C° 0 mm 3 m/s 753 mmHg 63%

    30 Ianuarie, Joi

    Timp Temperatura Precipitaţii Vânt Presiune Umiditate
    00:00 +3°C° 0 mm 3 m/s 753 mmHg 63%
    01:00 +4°C° 0 mm 2 m/s 753 mmHg 64%
    02:00 +3°C° 0 mm 2 m/s 753 mmHg 65%
    03:00 +3°C° 0 mm 2 m/s 753 mmHg 65%
    04:00 +3°C° 0 mm 2 m/s 753 mmHg 66%
    05:00 +3°C° 0 mm 2 m/s 753 mmHg 66%
    06:00 +3°C° 0 mm 2 m/s 753 mmHg 66%
    07:00 +3°C° 0 mm 2 m/s 754 mmHg 67%
    08:00 +2°C° 0 mm 3 m/s 754 mmHg 67%
    09:00 +3°C° 0 mm 4 m/s 754 mmHg 62%
    10:00 +3°C° 0 mm 5 m/s 755 mmHg 58%
    11:00 +4°C° 0 mm 7 m/s 755 mmHg 53%
    12:00 +5°C° 0 mm 7 m/s 754 mmHg 49%
    13:00 +6°C° 0 mm 7 m/s 754 mmHg 45%
    14:00 +6°C° 0 mm 7 m/s 754 mmHg 41%
    15:00 +7°C° 0 mm 6 m/s 754 mmHg 44%
    16:00 +6°C° 0 mm 5 m/s 754 mmHg 46%
    17:00 +5°C° 0 mm 5 m/s 754 mmHg 49%
    18:00 +5°C° 0 mm 5 m/s 755 mmHg 52%
    19:00 +3°C° 0 mm 5 m/s 755 mmHg 55%
    20:00 +2°C° 0 mm 5 m/s 756 mmHg 58%
    21:00 +2°C° 0 mm 6 m/s 756 mmHg 61%
    22:00 +2°C° 0 mm 7 m/s 756 mmHg 63%
    23:00 0°C° 0 mm 8 m/s 756 mmHg 66%

    31 Ianuarie, Vineri

    Timp Temperatura Precipitaţii Vânt Presiune Umiditate
    00:00 0°C° 0 mm 8 m/s 757 mmHg 69%
    01:00 -1°C° 0 mm 7 m/s 757 mmHg 72%
    02:00 -1°C° 0 mm 6 m/s 757 mmHg 75%
    03:00 -1°C° 0 mm 6 m/s 757 mmHg 76%
    04:00 -1°C° 0 mm 5 m/s 757 mmHg 77%
    05:00 -1°C° 0 mm 5 m/s 757 mmHg 78%
    06:00 -1°C° 0 mm 5 m/s 757 mmHg 75%
    07:00 -1°C° 0 mm 4 m/s 758 mmHg 72%
    08:00 -1°C° 0 mm 4 m/s 758 mmHg 69%
    09:00 +1°C° 0 mm 4 m/s 757 mmHg 61%
    10:00 +3°C° 0 mm 5 m/s 757 mmHg 54%
    11:00 +5°C° 0 mm 5 m/s 757 mmHg 46%
    12:00 +6°C° 0 mm 5 m/s 757 mmHg 42%
    13:00 +7°C° 0 mm 5 m/s 756 mmHg 38%
    14:00 +8°C° 0 mm 5 m/s 755 mmHg 34%
    15:00 +8°C° 0 mm 5 m/s 755 mmHg 38%
    16:00 +7°C° 0 mm 4 m/s 754 mmHg 42%
    17:00 +6°C° 0 mm 4 m/s 754 mmHg 46%
    18:00 +5°C° 0 mm 4 m/s 754 mmHg 47%
    19:00 +5°C° 0 mm 4 m/s 754 mmHg 48%
    20:00 +5°C° 0 mm 4 m/s 754 mmHg 48%
    21:00 +5°C° 0 mm 4 m/s 753 mmHg 48%
    22:00 +5°C° 0 mm 4 m/s 753 mmHg 47%
    23:00 +5°C° 0 mm 5 m/s 753 mmHg 47%

    1 Februarie, Sâmbătă

    Timp Temperatura Precipitaţii Vânt Presiune Umiditate
    00:00 +6°C° 0 mm 5 m/s 753 mmHg 48%
    01:00 +6°C° 0 mm 5 m/s 753 mmHg 50%
    02:00 +6°C° 0 mm 5 m/s 753 mmHg 51%
    03:00 +6°C° 0 mm 5 m/s 753 mmHg 57%
    04:00 +6°C° 0 mm 5 m/s 753 mmHg 62%
    05:00 +6°C° 0 mm 5 m/s 753 mmHg 68%
    06:00 +5°C° 0 mm 5 m/s 754 mmHg 71%
    07:00 +5°C° 0 mm 5 m/s 754 mmHg 75%
    08:00 +5°C° 0 mm 5 m/s 754 mmHg 79%
    09:00 +7°C° 0 mm 5 m/s 755 mmHg 74%
    10:00 +8°C° 0 mm 5 m/s 755 mmHg 69%
    11:00 +10°C° 0 mm 5 m/s 756 mmHg 64%
    12:00 +12°C° 0 mm 4 m/s 756 mmHg 61%
    13:00 +13°C° 0 mm 4 m/s 755 mmHg 58%
    14:00 +14°C° 0 mm 3 m/s 755 mmHg 55%
    15:00 +13°C° 0 mm 3 m/s 755 mmHg 58%
    16:00 +12°C° 0 mm 3 m/s 755 mmHg 61%
    17:00 +11°C° 0 mm 3 m/s 755 mmHg 64%
    18:00 +11°C° 0 mm 3 m/s 755 mmHg 67%
    19:00 +10°C° 0 mm 3 m/s 756 mmHg 70%
    20:00 +9°C° 0 mm 3 m/s 756 mmHg 73%
    21:00 +9°C° 0 mm 3 m/s 756 mmHg 74%
    22:00 +9°C° 0 mm 3 m/s 756 mmHg 75%
    23:00 +8°C° 0 mm 3 m/s 756 mmHg 76%
    Arată mai mult